Theta_e
308 308 308 309 309 308 305 295 291 304 304 294 289 288 293 298 299 300 296 294 292 288 289 288 288 288 291 296 297 290 293 291 287 288 294 295 293 290 288 282 281 280 280 281
307 307 307 308 308 308 303 293 293 304 303 288 287 291 294 297 297 296 294 292 294 292 288 283 288 290 296 295 295 293 294 290 284 284 285 293 290 292 291 289 287 282 278 281
308 307 306 307 308 308 299 295 291 295 295 293 289 288 290 292 299 297 296 293 293 289 287 289 286 288 293 295 297 303 299 292 289 284 286 291 288 291 292 287 283 284 283 286
308 308 307 306 307 307 299 294 291 292 287 290 290 289 291 291 291 296 295 291 292 290 284 286 285 288 291 293 297 294 296 289 291 291 292 292 290 290 290 289 289 285 286 287
308 308 306 306 306 307 298 293 292 294 291 291 289 290 288 291 292 293 292 290 294 292 286 287 286 288 287 287 291 296 297 289 291 288 291 290 287 290 290 291 291 291 290 289
307 307 306 306 307 307 299 300 302 298 291 289 289 288 290 292 294 295 297 295 293 290 292 293 294 295 294 292 289 291 293 290 287 282 287 286 277 288 290 291 292 291 287 292
305 305 306 306 307 308 305 303 302 296 288 290 290 292 294 292 293 293 295 295 292 294 298 297 295 292 292 291 291 293 291 290 287 282 283 270 287 295 294 292 293 294 294 294
304 306 308 309 308 308 304 306 302 298 290 291 290 291 292 294 293 291 293 296 298 296 294 286 285 286 287 290 294 291 291 287 285 282 281 284 287 291 291 289 288 292 291 292
304 306 307 309 309 308 306 305 306 300 292 288 294 291 291 288 290 290 293 297 297 294 288 286 282 279 283 284 287 294 291 289 287 283 278 269 279 294 297 294 285 294 294 292
304 305 306 308 309 309 307 305 306 301 293 296 295 291 292 296 294 291 293 295 292 291 286 283 281 282 287 281 283 283 283 283 282 279 279 281 291 294 295 283 285 294 295 293
303 305 306 307 308 309 307 301 306 301 294 295 298 297 294 294 294 290 294 291 288 286 283 285 283 280 283 283 285 284 283 281 281 283 281 276 294 292 287 292 296 296 297 295
303 304 305 306 308 308 308 300 302 306 298 296 300 300 300 299 298 295 294 292 292 293 290 286 289 284 281 282 280 287 284 286 281 285 282 288 293 293 295 296 296 297 297 296
302 303 304 305 307 307 306 302 300 302 295 295 295 294 300 302 302 303 293 296 297 296 297 295 293 287 284 281 281 283 287 290 287 287 290 291 293 294 294 296 298 299 298 297
302 303 303 304 306 307 306 298 300 301 297 288 289 298 295 301 299 300 301 298 298 298 297 294 292 290 292 284 286 284 288 289 287 286 290 291 292 293 295 297 297 297 297 297
301 302 303 303 304 306 303 300 301 303 296 288 290 296 298 298 298 298 299 298 297 295 293 292 290 294 291 291 286 287 289 289 285 286 290 289 289 292 295 293 294 295 295 296
301 301 303 303 303 304 295 293 303 305 303 293 286 292 293 296 297 295 295 296 296 295 293 292 295 297 294 289 281 289 290 291 292 292 290 291 293 293 293 292 294 295 296 297
300 301 302 302 303 300 294 289 300 306 303 293 288 286 291 293 293 293 292 294 295 295 293 292 293 293 296 292 286 290 292 293 293 292 292 290 289 289 291 293 295 296 297 298
299 300 301 302 303 301 296 298 303 303 297 296 287 285 286 292 289 289 294 291 296 295 294 294 291 293 292 288 292 293 294 293 293 291 291 289 289 290 292 294 294 293 294 295
299 300 302 300 298 295 297 306 307 304 298 289 289 286 282 292 289 289 290 295 291 298 292 292 295 294 289 293 294 293 293 291 290 290 289 289 291 291 292 292 292 291 292 293
300 299 294 288 298 304 304 299 296 295 296 293 288 290 286 292 288 288 286 290 291 288 292 298 293 292 297 296 293 292 290 290 290 287 288 288 289 290 290 290 291 291 292 293
292 292 292 295 301 294 293 290 289 290 287 291 290 290 287 295 288 287 290 284 287 286 289 292 290 290 291 292 290 290 290 290 290 292 291 291 290 289 289 290 290 290 291 291
291 292 294 295 292 290 288 285 287 287 284 290 286 290 292 293 295 290 291 286 288 284 295 291 288 292 291 291 290 289 289 290 291 292 291 291 290 290 289 289 289 289 291 291
293 291 289 289 288 282 282 280 284 285 290 291 292 291 294 295 294 291 291 288 286 294 288 288 290 291 292 292 291 289 290 292 291 291 291 291 290 289 289 288 289 289 289 290
288 285 280 284 281 285 286 284 288 292 293 289 289 289 287 289 290 292 286 291 293 288 286 287 289 292 292 292 291 289 288 290 290 290 291 290 289 288 288 288 288 288 287 289
283 283 278 281 284 286 289 291 290 292 291 290 289 288 290 290 289 290 288 288 286 286 284 288 291 293 293 291 290 289 288 288 287 288 290 290 289 288 287 288 288 288 287 287
284 284 282 283 283 281 283 284 286 290 290 289 288 286 287 286 287 285 284 284 282 286 288 291 291 294 293 291 291 291 290 289 288 288 289 290 289 288 288 288 288 287 287 286
283 282 284 282 281 281 282 283 283 286 285 281 285 284 285 290 286 285 286 284 288 289 291 293 295 293 291 291 292 293 292 290 289 288 287 289 290 290 288 286 287 287 287 286
Wind_Speed
22 23 24 27 30 29 9 4 4 5 6 7 2 2 5 6 4 4 6 2 2 2 4 5 5 6 6 5 5 4 6 4 6 13 17 10 9 2 5 4 3 4 3 9
21 22 23 25 25 19 5 4 4 5 5 4 4 5 5 4 4 5 4 5 2 3 2 6 4 6 5 5 4 5 5 4 8 7 5 2 2 4 6 3 3 8 4 9
16 19 22 23 24 21 2 3 6 6 6 2 4 5 4 5 5 5 6 7 3 6 5 4 9 13 9 3 5 16 5 5 9 11 12 12 12 12 14 7 4 3 10 18
16 17 20 22 23 22 2 3 2 1 5 3 3 3 3 4 5 5 5 5 2 9 6 11 7 3 11 7 11 2 4 7 10 12 19 19 20 21 18 16 11 8 13 13
17 15 19 20 21 24 4 2 4 4 4 4 2 2 3 3 2 3 6 4 16 13 8 12 21 11 6 8 3 5 3 7 4 12 17 16 16 14 14 15 11 9 12 21
16 16 17 17 16 13 2 2 2 0 4 4 3 4 4 4 9 10 10 11 14 15 17 10 15 19 20 15 8 3 3 3 3 8 6 13 5 4 3 0 2 7 12 6
15 15 15 13 11 7 2 3 2 2 6 3 4 9 14 15 11 13 16 16 9 9 7 18 15 11 14 9 12 12 5 3 2 7 6 5 2 2 4 3 11 16 6 11
14 16 18 14 8 9 2 2 2 3 5 6 12 12 11 11 11 14 14 16 10 6 9 4 8 6 5 3 5 9 6 3 3 4 6 14 2 2 2 6 12 5 5 13
15 16 17 18 13 10 2 2 3 3 5 7 7 8 6 12 13 7 6 5 5 3 2 1 3 4 4 4 5 4 5 3 3 2 4 5 6 4 4 7 6 0 13 12
16 16 16 18 17 14 2 3 4 3 6 8 12 9 7 3 7 8 13 4 5 1 2 3 4 5 2 3 3 3 3 1 5 4 5 9 4 4 4 5 4 9 8 12
16 16 17 18 17 17 5 4 6 5 6 11 16 20 17 13 10 11 4 9 2 3 3 3 3 3 4 2 4 4 4 3 4 1 4 9 5 0 1 6 7 12 10 11
16 16 16 17 17 15 11 3 2 4 7 7 12 21 21 19 18 14 11 13 10 4 3 2 1 3 2 3 5 0 4 8 5 7 8 6 6 9 7 5 10 11 9 17
17 17 17 18 17 15 8 4 3 3 5 10 11 13 16 12 15 16 7 6 9 6 4 5 4 7 4 4 7 4 5 3 5 3 8 10 9 5 5 4 8 8 13 17
17 16 17 17 18 17 13 3 2 3 4 6 8 4 9 8 10 14 16 19 8 2 2 4 4 4 5 5 5 6 7 5 4 7 14 10 9 4 3 6 8 13 15 14
18 18 17 17 17 17 8 6 6 6 5 6 11 16 22 6 10 19 17 15 15 8 5 6 8 4 3 4 0 11 6 9 6 8 6 6 7 3 3 8 13 13 15 17
18 19 18 18 18 16 3 4 0 1 2 5 6 6 7 6 8 9 13 13 9 7 5 5 6 5 4 4 4 7 7 5 8 9 2 6 6 3 5 9 13 13 15 14
20 20 20 19 16 6 3 6 0 2 5 4 7 6 5 6 4 1 2 6 4 4 3 6 7 4 6 4 12 4 6 8 6 3 2 4 4 5 9 10 13 14 12 11
21 22 22 21 20 16 9 9 18 4 3 5 5 6 5 3 4 4 4 5 4 6 4 3 4 1 4 8 11 6 5 1 4 5 3 1 4 5 8 10 10 13 13 13
24 25 26 7 3 3 3 7 6 4 3 3 4 3 5 4 3 3 4 3 4 3 5 4 6 5 9 9 11 7 7 4 5 5 4 5 6 8 10 11 12 12 14 13
26 7 2 3 0 12 10 2 2 4 5 4 5 3 6 2 1 4 4 3 4 3 3 2 4 6 10 3 3 6 6 6 4 3 4 5 6 8 10 10 9 10 12 13
4 3 3 4 11 2 2 3 3 3 3 4 3 3 5 3 5 4 3 4 4 3 4 5 3 3 3 4 8 6 7 7 7 6 4 4 5 7 8 9 10 10 11 11
4 7 7 4 3 3 5 2 2 4 4 4 2 4 5 4 3 4 4 5 3 6 3 3 3 1 4 6 6 6 6 7 8 8 7 7 7 7 7 7 8 10 9 10
3 3 4 3 2 3 5 5 4 3 2 2 3 5 3 2 4 5 4 5 6 1 2 2 6 4 4 7 5 5 5 8 8 7 7 7 7 7 7 8 9 9 9 10
3 2 5 4 5 5 2 1 2 3 4 4 3 3 3 3 3 4 4 5 4 4 2 5 5 7 3 5 3 4 5 7 7 7 6 7 7 7 8 9 9 9 11 11
3 2 5 5 4 2 1 2 3 2 4 7 7 3 2 3 4 2 5 6 4 5 3 4 6 11 4 4 3 4 5 5 4 4 7 8 8 7 8 9 9 10 11 12
3 5 5 5 4 4 4 3 4 3 4 6 0 3 4 3 2 3 4 7 3 3 5 9 10 4 6 6 4 4 5 5 4 4 5 7 8 8 8 8 10 11 11 12
4 4 4 4 5 6 4 3 4 2 3 2 4 4 3 3 3 2 3 2 5 7 11 10 9 6 6 6 6 5 5 5 5 4 4 6 7 8 8 10 9 9 10 10
Wind_Direction
359 358 355 352 353 345 28 359 358 313 358 51 46 43 313 294 292 350 288 309 320 273 297 280 261 244 213 354 160 203 217 261 276 280 284 266 234 216 213 237 222 248 241 271
356 356 357 354 349 2 324 353 278 324 52 78 347 309 286 271 321 319 327 301 37 312 299 343 250 280 272 302 179 270 188 245 301 300 0 5 100 205 221 269 251 200 224 260
353 355 356 356 344 352 36 8 344 335 33 56 93 337 288 303 331 289 3 282 18 360 308 242 274 284 290 19 226 279 202 233 239 265 280 298 285 269 262 218 237 216 231 272
348 353 355 355 345 344 69 32 306 201 315 325 331 201 267 295 335 349 325 309 54 332 287 299 244 243 304 288 279 303 185 255 259 269 270 269 271 282 283 272 238 236 271 280
344 348 357 354 351 339 61 37 19 354 284 291 282 251 243 236 242 254 278 230 305 309 257 240 284 286 262 244 288 163 204 281 279 289 277 268 275 278 278 269 285 278 292 280
346 347 353 353 352 346 352 344 309 248 267 289 294 244 236 269 336 282 228 321 301 299 282 261 269 271 266 242 255 222 223 261 286 286 316 307 318 220 236 276 243 293 297 298
342 342 344 346 343 2 295 300 281 277 270 236 241 288 288 290 291 264 295 292 265 247 294 304 285 261 252 233 233 205 184 231 234 289 328 345 216 54 299 301 285 298 316 338
332 325 322 323 327 308 223 282 278 270 268 267 281 270 280 299 300 289 268 266 255 318 311 311 321 325 7 203 181 186 186 146 283 287 309 283 259 180 313 329 322 46 352 323
326 323 323 325 331 332 284 228 196 267 293 239 269 296 301 295 283 285 240 302 295 311 261 287 259 253 233 299 328 163 137 184 209 315 291 264 235 212 253 270 267 336 352 312
322 320 320 319 322 319 314 260 204 244 275 265 251 260 270 283 274 289 290 320 307 192 252 245 223 257 264 258 234 237 279 233 212 230 247 274 199 228 274 347 301 289 305 293
319 320 321 319 319 321 336 260 210 219 259 265 260 271 268 271 255 267 321 342 21 309 245 216 260 211 257 300 244 230 203 231 227 220 264 272 158 174 229 251 293 286 270 305
319 320 319 319 319 317 332 267 266 237 249 275 307 274 269 252 254 264 254 243 264 273 292 238 307 290 294 191 266 103 254 193 194 194 230 235 201 237 252 255 268 275 294 302
315 317 317 316 320 321 324 277 267 250 259 276 253 254 255 234 229 231 262 240 237 229 196 267 238 238 144 210 232 225 264 198 236 345 269 258 269 275 239 261 270 291 283 287
311 313 315 314 319 319 327 243 245 240 275 277 285 275 255 246 219 220 216 232 235 265 193 257 249 244 214 223 231 202 198 167 231 259 280 288 272 241 312 304 293 290 293 291
312 310 311 314 315 319 312 256 234 214 232 282 293 295 281 278 242 236 233 227 230 229 230 237 255 259 202 215 99 258 176 226 187 237 235 212 277 302 358 318 308 306 305 304
312 310 311 310 313 325 332 307 340 221 201 287 306 291 280 297 261 244 219 216 217 206 204 215 220 213 244 260 248 243 211 211 212 257 170 227 269 282 352 308 308 307 307 305
314 311 306 303 303 296 238 220 258 218 17 290 293 286 286 286 279 358 86 170 193 231 235 230 234 242 189 230 254 151 240 245 251 230 265 281 56 313 307 303 311 315 310 318
311 307 302 295 292 281 262 243 254 219 221 234 257 272 325 357 299 311 198 163 199 193 227 228 200 198 208 244 244 261 271 222 128 111 80 138 298 318 317 318 329 333 330 336
309 305 300 284 207 218 240 263 258 179 207 249 240 274 297 360 298 281 301 191 225 234 223 227 164 190 221 230 239 239 207 198 149 121 67 359 3 345 329 329 338 338 328 335
307 301 279 260 100 309 303 5 204 201 194 219 257 248 253 344 290 288 297 250 232 249 213 301 256 261 251 226 142 124 122 99 99 105 350 359 356 340 331 332 332 328 323 324
337 336 289 312 310 7 251 249 221 161 241 218 240 244 274 281 247 258 240 286 265 252 224 204 232 264 25 48 94 97 93 89 86 93 82 34 2 338 328 334 342 336 334 332
262 290 286 256 272 229 257 227 222 221 245 176 204 253 224 252 212 258 243 250 256 252 135 227 222 175 108 96 95 93 99 93 73 62 55 36 21 359 343 343 341 341 342 349
286 207 249 242 236 243 244 202 203 221 89 291 242 282 255 251 222 244 267 257 250 64 224 252 33 29 92 117 105 90 84 85 78 64 56 46 28 13 7 2 358 355 11 19
256 248 259 234 213 240 194 334 328 308 272 310 268 261 232 234 245 238 248 250 278 255 24 33 7 345 131 108 93 112 97 92 83 66 61 50 34 23 22 18 8 15 23 27
262 243 244 243 250 291 243 278 286 314 308 338 313 287 244 266 289 312 311 308 15 33 332 282 319 320 169 133 129 130 113 100 81 59 63 60 47 36 36 29 28 35 34 39
231 241 260 283 319 297 358 355 321 317 334 307 236 270 252 270 259 287 20 314 288 309 295 303 298 236 148 134 143 138 117 113 105 80 66 71 62 50 44 41 38 37 43 49
233 239 217 237 267 263 258 204 241 296 13 317 299 302 268 262 242 249 215 241 282 284 298 300 289 148 146 135 143 138 127 119 110 100 78 78 86 75 59 49 35 43 44 50